Location: Pilipovskiye Korichintsy
(49.1833°N, 27.4667°E)
Time: 22:21:29
(UTC+00:00)

SL-8 R/B - Pass Details

Date: 14 July 2020
Orbit: 656 x 668 km, 48.4° (Epoch: 10 August)

Event Time Altitude Azimuth Distance (km) Brightness Sun altitude
Exits shadow 00:08:40 21° 234° (SW) 1,471 5.0 -14.9°
Maximum altitude 00:11:43 59° 161° (SSE) 767 3.8 -14.6°
Drops below altitude 10° 00:16:26 10° 82° (E) 2,081 6.8 -14.3°
Sets 00:18:49 0° 79° (E) 2,993 7.7 -14.1°
